Content
SEND FEEDBACK

Daily
Averages
Monthly
Summary
Romania

SIGHETU MARMATIEI, ROMANIA


Home > Europe > Romania
Elevation: 905 feet     Latitude: 47 58N     Longitude: 023 55E

WEATHER
 
SELECT A DAY
Number of Records: 60,652;   Date Range: 5/9/97 - 12/18/14
 
SHARE

PRINT THIS DATA

[ ← Previous Day ]
WEATHER ALMANAC - JANUARY 31, 2013
[ Next Day → ]
[ °C ]   °F
Weather ElementAverageHighLow
Temperature35 °F42.8 °F (3:00 pm)33.8 °F (1:00 am)
Dewpoint34.2 °F39.2 °F (3:00 pm)32 °F (6:30 pm)
Humidity96.8 %100 % (1:00 am)87 % (3:00 pm)
Barometer29.88 in29.95 in (1:30 pm)29.80 in (4:00 am)
Wind Speed3.5 mph6.9 mph (12:30 pm)
Weather ElementAverage
Visibility2.8 mi
Wind DirectionENE (68.7 °)

Weather ElementTotal
Precipitation---
Heating Degree Days26.7 (Base 65)
Averaged from 39 records on January 31, 2013
WEATHER CONDITIONS BREAKOUT
WIND DIRECTION BREAKOUT
WEATHER BY HOUR - JANUARY 31, 2013
[ °C ]   °F
Local TimeTemperatureDewpointHumidityBarometerVisibilityWind DirectionWind SpeedGust SpeedPrecipitationEventsConditions
1:00 AM33.8 °F33.8 °F100 %29.89 inVariable2.3 mphRainLight Rain
2:00 AM33.8 °F33.8 °F100 %29.86 inENE (70°)4.6 mphDrizzle
3:00 AM33.8 °F33.8 °F100 %29.83 in0.9 miENE (60°)4.6 mphRainLight Rain
4:00 AM33.8 °F33.8 °F100 %29.80 in1.6 miENE (70°)4.6 mphRainLight Rain
5:00 AM33.8 °F33.8 °F100 %29.80 in1.5 miENE (70°)4.6 mphRainRain
5:30 AM35.6 °F33.8 °F93 %29.80 in1.7 miNE (50°)4.6 mphRainRain
6:00 AM35.6 °F35.6 °F100 %29.80 in2.5 miCalmRainRain
6:30 AM35.6 °F33.8 °F93 %29.80 in5.0 miVariable2.3 mphRainRain
7:00 AM33.8 °F33.8 °F100 %29.80 in5.0 miVariable2.3 mphRainLight Rain
7:30 AM33.8 °F33.8 °F100 %29.83 in3.7 miVariable2.3 mphRainLight Rain
8:00 AM33.8 °F33.8 °F100 %29.83 in1.3 miVariable2.3 mphRainLight Rain
8:30 AM33.8 °F33.8 °F100 %29.83 inNNE (30°)2.3 mphFog-RainLight Rain
9:00 AM33.8 °F33.8 °F100 %29.86 in3.7 miVariable2.3 mphMostly Cloudy
9:30 AM33.8 °F33.8 °F100 %29.86 in0.8 miCalmMostly Cloudy
10:00 AM33.8 °F33.8 °F100 %29.89 in0.8 miCalmMostly Cloudy
10:30 AM33.8 °F33.8 °F100 %29.89 in1.3 miVariable2.3 mphMostly Cloudy
11:00 AM35.6 °F33.8 °F93 %29.92 in1.0 miSW (220°)2.3 mphMostly Cloudy
11:30 AM35.6 °F35.6 °F100 %29.92 in0.3 miWNW (290°)4.6 mphFogFog
12:30 PM35.6 °F33.8 °F93 %29.92 in0.2 miWest (280°)6.9 mphFogFog
1:00 PM35.6 °F35.6 °F100 %29.92 inVariable2.3 mphFogFog
1:30 PM35.6 °F35.6 °F100 %29.95 in0.9 miWNW (290°)6.9 mphMostly Cloudy
2:00 PM37.4 °F37.4 °F100 %29.95 in5.0 miNW (310°)4.6 mphMostly Cloudy
2:30 PM39.2 °F37.4 °F93 %29.92 in6.2 miVariable2.3 mphScattered Clouds
3:00 PM42.8 °F39.2 °F87 %29.92 in6.2 miCalmPartly Cloudy
3:30 PM37.4 °F35.6 °F93 %29.92 inSE (140°)4.6 mphPartly Cloudy
4:00 PM35.6 °F35.6 °F100 %29.92 in1.6 miESE (120°)4.6 mphMist
4:30 PM37.4 °F35.6 °F93 %29.92 inESE (110°)4.6 mphMostly Cloudy
5:00 PM37.4 °F35.6 °F93 %29.92 in3.7 miEast (80°)4.6 mphScattered Clouds
5:30 PM35.6 °F35.6 °F100 %29.92 in4.3 miEast (80°)4.6 mphPartly Cloudy
6:00 PM35.6 °F33.8 °F93 %29.92 in2.5 miENE (60°)4.6 mphScattered Clouds
6:30 PM33.8 °F32.0 °F93 %29.89 inENE (70°)4.6 mphScattered Clouds
7:00 PM33.8 °F32.0 °F93 %29.89 in3.7 miVariable2.3 mph
7:30 PM33.8 °F33.8 °F100 %29.89 in3.7 miVariable4.6 mph
8:00 PM33.8 °F32.0 °F93 %29.89 in3.7 miEast (90°)4.6 mph
8:30 PM33.8 °F32.0 °F93 %29.89 inENE (60°)6.9 mphClear
9:00 PM33.8 °F32.0 °F93 %29.89 in5.0 miEast (80°)6.9 mph
10:00 PM33.8 °F32.0 °F93 %29.89 inVariable2.3 mphClear
10:30 PM33.8 °F33.8 °F100 %29.86 inNE (50°)4.6 mphClear
11:00 PM33.8 °F32.0 °F93 %29.89 in3.7 miVariable2.3 mphScattered Clouds
Hourly data recorded from LRBM, located miles away from Sighetu Marmatiei, Romania







STORIES FROM OUR PARTNERS